| time (UTC) | temp C | wind direction | speed KPH | gust KPH | rain 1hr cm | rain 24hr cm | rain mn cm | humidity % | barometer mb |
| 20260906203743 | 38 | 96 | 1.6 | 3.2 | 0.00 | 0.00 | 0.00 | 29 | 1012.6 |
| 20260906203243 | 38 | 160 | 6.4 | 6.4 | 0.00 | 0.00 | 0.00 | 29 | 1012.7 |
| 20260906202743 | 38 | 169 | 3.2 | 3.2 | 0.00 | 0.00 | 0.00 | 30 | 1012.7 |
| 20260906202244 | 38 | 168 | 8.0 | 9.7 | 0.00 | 0.00 | 0.00 | 30 | 1012.8 |
| 20260906201743 | 38 | 163 | 4.8 | 6.4 | 0.00 | 0.00 | 0.00 | 29 | 1012.9 |
| 20260906201244 | 38 | 30 | 1.6 | 1.6 | 0.00 | 0.00 | 0.00 | 30 | 1012.8 |
| 20260906200743 | 38 | 174 | 1.6 | 3.2 | 0.00 | 0.00 | 0.00 | 29 | 1012.9 |
| 20260906200244 | 37 | 174 | 4.8 | 4.8 | 0.00 | 0.00 | 0.00 | 30 | 1013.0 |
| 20260906195743 | 37 | 164 | 6.4 | 6.4 | 0.00 | 0.00 | 0.00 | 31 | 1013.1 |
| 20260906195243 | 37 | 139 | 1.6 | 1.6 | 0.00 | 0.00 | 0.00 | 32 | 1013.2 |
| 20260906194744 | 37 | 172 | 1.6 | 1.6 | 0.00 | 0.00 | 0.00 | 31 | 1013.3 |
| 20260906194243 | 37 | 36 | 1.6 | 3.2 | 0.00 | 0.00 | 0.00 | 31 | 1013.3 |
| 20260906193744 | 37 | 148 | 4.8 | 6.4 | 0.00 | 0.00 | 0.00 | 31 | 1013.4 |
| 20260906193243 | 37 | 165 | 4.8 | 6.4 | 0.00 | 0.00 | 0.00 | 32 | 1013.5 |
| 20260906192743 | 37 | 165 | 6.4 | 8.0 | 0.00 | 0.00 | 0.00 | 32 | 1013.5 |
| 20260906192244 | 37 | 159 | 1.6 | 3.2 | 0.00 | 0.00 | 0.00 | 33 | 1013.5 |
| 20260906191744 | 37 | 158 | 3.2 | 4.8 | 0.00 | 0.00 | 0.00 | 33 | 1013.6 |
| 20260906191243 | 38 | 163 | 4.8 | 4.8 | 0.00 | 0.00 | 0.00 | 32 | 1013.6 |
| 20260906190743 | 37 | 134 | 3.2 | 4.8 | 0.00 | 0.00 | 0.00 | 33 | 1013.7 |
| 20260906190243 | 38 | 163 | 4.8 | 8.0 | 0.00 | 0.00 | 0.00 | 31 | 1013.8 |
| 20260906185743 | 37 | 156 | 6.4 | 8.0 | 0.00 | 0.00 | 0.00 | 30 | 1013.8 |
| 20260906185243 | 37 | 146 | 1.6 | 3.2 | 0.00 | 0.00 | 0.00 | 33 | 1013.9 |
| 20260906184743 | 37 | 130 | 4.8 | 4.8 | 0.00 | 0.00 | 0.00 | 34 | 1014.0 |
| 20260906184243 | 37 | 162 | 6.4 | 9.7 | 0.00 | 0.00 | 0.00 | 34 | 1014.0 |
| 20260906183744 | 37 | 148 | 3.2 | 4.8 | 0.00 | 0.00 | 0.00 | 34 | 1014.1 |
| 20260906183244 | 37 | 27 | 3.2 | 4.8 | 0.00 | 0.00 | 0.00 | 34 | 1014.2 |
| 20260906182743 | 37 | 145 | 3.2 | 3.2 | 0.00 | 0.00 | 0.00 | 34 | 1014.2 |
| 20260906182243 | 37 | 155 | 6.4 | 9.7 | 0.00 | 0.00 | 0.00 | 35 | 1014.4 |
| 20260906181743 | 37 | 153 | 3.2 | 4.8 | 0.00 | 0.00 | 0.00 | 34 | 1014.5 |
| 20260906181243 | 37 | 149 | 1.6 | 3.2 | 0.00 | 0.00 | 0.00 | 33 | 1014.5 |
| 20260906180743 | 37 | 160 | 3.2 | 6.4 | 0.00 | 0.00 | 0.00 | 34 | 1014.5 |
| 20260906180244 | 37 | 337 | 1.6 | 1.6 | 0.00 | 0.00 | 0.00 | 33 | 1014.6 |
| 20260906175743 | 37 | 151 | 6.4 | 8.0 | 0.00 | 0.00 | 0.00 | 34 | 1014.8 |
| 20260906175243 | 37 | 106 | 0.0 | 1.6 | 0.00 | 0.00 | 0.00 | 34 | 1014.9 |
| 20260906174742 | 37 | 356 | 0.0 | 1.6 | 0.00 | 0.00 | 0.00 | 34 | 1014.9 |
| 20260906174243 | 36 | 159 | 3.2 | 3.2 | 0.00 | 0.00 | 0.00 | 35 | 1015.0 |
| 20260906173743 | 36 | 173 | 6.4 | 8.0 | 0.00 | 0.00 | 0.00 | 36 | 1015.2 |
| 20260906173243 | 36 | 155 | 6.4 | 9.7 | 0.00 | 0.00 | 0.00 | 36 | 1015.2 |
| 20260906172745 | 36 | 144 | 1.6 | 3.2 | 0.00 | 0.00 | 0.00 | 36 | 1015.3 |
| 20260906172243 | 36 | 165 | 3.2 | 4.8 | 0.00 | 0.00 | 0.00 | 36 | 1015.4 |
| 20260906171743 | 36 | 347 | 1.6 | 3.2 | 0.00 | 0.00 | 0.00 | 37 | 1015.5 |
| 20260906171243 | 36 | 164 | 4.8 | 6.4 | 0.00 | 0.00 | 0.00 | 37 | 1015.5 |
| 20260906170744 | 36 | 22 | 4.8 | 6.4 | 0.00 | 0.00 | 0.00 | 36 | 1015.6 |
| 20260906170244 | 36 | 156 | 4.8 | 4.8 | 0.00 | 0.00 | 0.00 | 38 | 1015.7 |
| 20260906165743 | 35 | 187 | 1.6 | 1.6 | 0.00 | 0.00 | 0.00 | 40 | 1015.7 |
| 20260906165244 | 36 | 162 | 4.8 | 4.8 | 0.00 | 0.00 | 0.00 | 39 | 1015.8 |
| 20260906164743 | 36 | 153 | 3.2 | 3.2 | 0.00 | 0.00 | 0.00 | 39 | 1015.9 |
| 20260906164243 | 36 | 156 | 1.6 | 1.6 | 0.00 | 0.00 | 0.00 | 39 | 1015.9 |
| 20260906163744 | 36 | 181 | 0.0 | 0.0 | 0.00 | 0.00 | 0.00 | 39 | 1016.0 |
| 20260906163243 | 36 | 360 | 0.0 | 0.0 | 0.00 | 0.00 | 0.00 | 39 | 1016.0 |
| 20260906162743 | 36 | 152 | 4.8 | 6.4 | 0.00 | 0.00 | 0.00 | 38 | 1015.9 |
| 20260906162243 | 36 | 105 | 1.6 | 3.2 | 0.00 | 0.00 | 0.00 | 39 | 1015.9 |
| 20260906161743 | 36 | 185 | 1.6 | 1.6 | 0.00 | 0.00 | 0.00 | 39 | 1015.8 |
| 20260906161243 | 35 | 149 | 6.4 | 9.7 | 0.00 | 0.00 | 0.00 | 39 | 1015.8 |
| 20260906160743 | 35 | 164 | 3.2 | 3.2 | 0.00 | 0.00 | 0.00 | 40 | 1015.8 |
| 20260906160243 | 35 | 309 | 0.0 | 1.6 | 0.00 | 0.00 | 0.00 | 40 | 1015.8 |
| 20260906155743 | 35 | 63 | 1.6 | 1.6 | 0.00 | 0.00 | 0.00 | 41 | 1015.8 |
| 20260906155243 | 35 | 342 | 0.0 | 0.0 | 0.00 | 0.00 | 0.00 | 41 | 1015.8 |
| 20260906154743 | 35 | 6 | 1.6 | 1.6 | 0.00 | 0.00 | 0.00 | 41 | 1015.8 |
| 20260906154244 | 34 | 360 | 0.0 | 0.0 | 0.00 | 0.00 | 0.00 | 42 | 1015.7 |
| 20260906153744 | 34 | 325 | 0.0 | 0.0 | 0.00 | 0.00 | 0.00 | 43 | 1015.7 |
| 20260906153244 | 33 | 360 | 0.0 | 0.0 | 0.00 | 0.00 | 0.00 | 43 | 1015.7 |
| 20260906152743 | 33 | 144 | 4.8 | 6.4 | 0.00 | 0.00 | 0.00 | 44 | 1015.6 |
| 20260906152243 | 33 | 348 | 1.6 | 1.6 | 0.00 | 0.00 | 0.00 | 45 | 1015.7 |
| 20260906151743 | 33 | 153 | 3.2 | 4.8 | 0.00 | 0.00 | 0.00 | 46 | 1015.6 |
| 20260906151244 | 32 | 360 | 0.0 | 0.0 | 0.00 | 0.00 | 0.00 | 46 | 1015.6 |
| 20260906150745 | 32 | 190 | 0.0 | 0.0 | 0.00 | 0.00 | 0.00 | 47 | 1015.6 |
| 20260906150244 | 32 | 114 | 0.0 | 0.0 | 0.00 | 0.00 | 0.00 | 47 | 1015.6 |
| 20260906145744 | 32 | 360 | 0.0 | 0.0 | 0.00 | 0.00 | 0.00 | 48 | 1015.6 |
| 20260906145253 | 32 | 172 | 0.0 | 0.0 | 0.00 | 0.00 | 0.00 | 48 | 1015.6 |
| 20260906144743 | 32 | 155 | 3.2 | 4.8 | 0.00 | 0.00 | 0.00 | 48 | 1015.6 |
| 20260906144243 | 31 | 360 | 0.0 | 0.0 | 0.00 | 0.00 | 0.00 | 50 | 1015.6 |
| 20260906143744 | 31 | 69 | 1.6 | 3.2 | 0.00 | 0.00 | 0.00 | 50 | 1015.6 |
| 20260906143244 | 31 | 360 | 0.0 | 0.0 | 0.00 | 0.00 | 0.00 | 51 | 1015.6 |
| 20260906142743 | 31 | 148 | 0.0 | 0.0 | 0.00 | 0.00 | 0.00 | 52 | 1015.6 |
| 20260906142243 | 30 | 329 | 1.6 | 1.6 | 0.00 | 0.00 | 0.00 | 52 | 1015.6 |
| 20260906141743 | 30 | 360 | 0.0 | 0.0 | 0.00 | 0.00 | 0.00 | 53 | 1015.5 |
| 20260906141243 | 30 | 343 | 1.6 | 1.6 | 0.00 | 0.00 | 0.00 | 52 | 1015.5 |
| 20260906140743 | 30 | 360 | 0.0 | 0.0 | 0.00 | 0.00 | 0.00 | 52 | 1015.5 |
| 20260906140244 | 30 | 350 | 0.0 | 1.6 | 0.00 | 0.00 | 0.00 | 53 | 1015.4 |
| 20260906135743 | 30 | 153 | 0.0 | 0.0 | 0.00 | 0.00 | 0.00 | 53 | 1015.4 |
| 20260906135243 | 30 | 360 | 0.0 | 0.0 | 0.00 | 0.00 | 0.00 | 53 | 1015.3 |
| 20260906134743 | 29 | 345 | 0.0 | 1.6 | 0.00 | 0.00 | 0.00 | 54 | 1015.3 |
| 20260906134243 | 28 | 360 | 0.0 | 0.0 | 0.00 | 0.00 | 0.00 | 55 | 1015.3 |
| 20260906133743 | 28 | 360 | 0.0 | 0.0 | 0.00 | 0.00 | 0.00 | 56 | 1015.2 |
| 20260906133243 | 28 | 360 | 0.0 | 0.0 | 0.00 | 0.00 | 0.00 | 56 | 1015.2 |
| 20260906132743 | 28 | 360 | 0.0 | 0.0 | 0.00 | 0.00 | 0.00 | 57 | 1015.2 |
| 20260906132243 | 28 | 360 | 0.0 | 0.0 | 0.00 | 0.00 | 0.00 | 58 | 1015.2 |
| 20260906131743 | 27 | 151 | 0.0 | 1.6 | 0.00 | 0.00 | 0.00 | 57 | 1015.2 |
| 20260906131243 | 27 | 360 | 0.0 | 0.0 | 0.00 | 0.00 | 0.00 | 58 | 1015.0 |
| 20260906130744 | 27 | 157 | 1.6 | 1.6 | 0.00 | 0.00 | 0.00 | 57 | 1015.0 |
| 20260906130244 | 27 | 151 | 1.6 | 1.6 | 0.00 | 0.00 | 0.00 | 58 | 1015.0 |
| 20260906125743 | 27 | 163 | 0.0 | 1.6 | 0.00 | 0.00 | 0.00 | 58 | 1015.0 |
| 20260906125243 | 27 | 360 | 0.0 | 0.0 | 0.00 | 0.00 | 0.00 | 57 | 1015.0 |
| 20260906124743 | 27 | 160 | 1.6 | 3.2 | 0.00 | 0.00 | 0.00 | 57 | 1014.9 |
| 20260906124243 | 27 | 360 | 0.0 | 0.0 | 0.00 | 0.00 | 0.00 | 57 | 1014.9 |
| 20260906123743 | 27 | 165 | 3.2 | 3.2 | 0.00 | 0.00 | 0.00 | 57 | 1014.8 |
| 20260906123243 | 27 | 166 | 1.6 | 3.2 | 0.00 | 0.00 | 0.00 | 57 | 1014.7 |
| 20260906122743 | 27 | 164 | 1.6 | 3.2 | 0.00 | 0.00 | 0.00 | 57 | 1014.7 |
| 20260906122244 | 27 | 360 | 0.0 | 0.0 | 0.00 | 0.00 | 0.00 | 57 | 1014.7 |
| 20260906121743 | 27 | 310 | 0.0 | 0.0 | 0.00 | 0.00 | 0.00 | 57 | 1014.6 |
| 20260906121243 | 27 | 163 | 3.2 | 3.2 | 0.00 | 0.00 | 0.00 | 57 | 1014.6 |
| 20260906120746 | 27 | 163 | 1.6 | 3.2 | 0.00 | 0.00 | 0.00 | 57 | 1014.5 |
| 20260906120243 | 27 | 160 | 1.6 | 3.2 | 0.00 | 0.00 | 0.00 | 57 | 1014.5 |
| 20260906115743 | 27 | 169 | 1.6 | 1.6 | 0.00 | 0.00 | 0.00 | 57 | 1014.5 |
| 20260906115244 | 27 | 175 | 3.2 | 3.2 | 0.00 | 0.00 | 0.00 | 57 | 1014.5 |
| 20260906114743 | 27 | 167 | 3.2 | 3.2 | 0.00 | 0.00 | 0.00 | 57 | 1014.4 |
| 20260906114243 | 27 | 168 | 3.2 | 3.2 | 0.00 | 0.00 | 0.00 | 56 | 1014.2 |
| 20260906113744 | 27 | 170 | 3.2 | 3.2 | 0.00 | 0.00 | 0.00 | 56 | 1014.2 |
| 20260906113243 | 27 | 165 | 3.2 | 3.2 | 0.00 | 0.00 | 0.00 | 56 | 1014.1 |
| 20260906112743 | 27 | 170 | 3.2 | 4.8 | 0.00 | 0.00 | 0.00 | 56 | 1014.1 |
| 20260906112243 | 28 | 161 | 1.6 | 3.2 | 0.00 | 0.00 | 0.00 | 55 | 1014.0 |
| 20260906111743 | 28 | 163 | 3.2 | 3.2 | 0.00 | 0.00 | 0.00 | 55 | 1013.9 |
| 20260906111243 | 28 | 168 | 3.2 | 3.2 | 0.00 | 0.00 | 0.00 | 55 | 1013.9 |
| 20260906110743 | 28 | 163 | 3.2 | 3.2 | 0.00 | 0.00 | 0.00 | 55 | 1013.9 |
| 20260906110243 | 28 | 162 | 3.2 | 3.2 | 0.00 | 0.00 | 0.00 | 55 | 1013.9 |
| 20260906105743 | 28 | 164 | 3.2 | 3.2 | 0.00 | 0.00 | 0.00 | 54 | 1013.9 |
| 20260906105243 | 28 | 172 | 3.2 | 3.2 | 0.00 | 0.00 | 0.00 | 54 | 1013.9 |
| 20260906104743 | 28 | 169 | 3.2 | 3.2 | 0.00 | 0.00 | 0.00 | 54 | 1013.9 |
| 20260906104243 | 28 | 158 | 3.2 | 3.2 | 0.00 | 0.00 | 0.00 | 54 | 1013.8 |
| 20260906103743 | 28 | 167 | 3.2 | 3.2 | 0.00 | 0.00 | 0.00 | 54 | 1013.7 |
| 20260906103243 | 28 | 157 | 1.6 | 3.2 | 0.00 | 0.00 | 0.00 | 54 | 1013.7 |
| 20260906102746 | 28 | 165 | 1.6 | 3.2 | 0.00 | 0.00 | 0.00 | 54 | 1013.7 |
| 20260906102243 | 28 | 160 | 1.6 | 3.2 | 0.00 | 0.00 | 0.00 | 54 | 1013.7 |
| 20260906101743 | 28 | 175 | 3.2 | 3.2 | 0.00 | 0.00 | 0.00 | 54 | 1013.7 |
| 20260906101243 | 28 | 165 | 3.2 | 4.8 | 0.00 | 0.00 | 0.00 | 54 | 1013.7 |
| 20260906100744 | 28 | 165 | 1.6 | 3.2 | 0.00 | 0.00 | 0.00 | 53 | 1013.7 |
| 20260906100243 | 28 | 172 | 1.6 | 1.6 | 0.00 | 0.00 | 0.00 | 53 | 1013.6 |
| 20260906095744 | 28 | 165 | 1.6 | 3.2 | 0.00 | 0.00 | 0.00 | 53 | 1013.6 |
| 20260906095243 | 28 | 162 | 1.6 | 3.2 | 0.00 | 0.00 | 0.00 | 53 | 1013.7 |
| 20260906094744 | 28 | 171 | 1.6 | 3.2 | 0.00 | 0.00 | 0.00 | 52 | 1013.6 |
| 20260906094243 | 28 | 166 | 1.6 | 3.2 | 0.00 | 0.00 | 0.00 | 52 | 1013.6 |
| 20260906093743 | 28 | 156 | 1.6 | 3.2 | 0.00 | 0.00 | 0.00 | 52 | 1013.6 |
| 20260906093243 | 28 | 174 | 1.6 | 1.6 | 0.00 | 0.00 | 0.00 | 53 | 1013.5 |
| 20260906092744 | 28 | 172 | 1.6 | 1.6 | 0.00 | 0.00 | 0.00 | 52 | 1013.5 |
| 20260906092244 | 28 | 165 | 3.2 | 3.2 | 0.00 | 0.00 | 0.00 | 52 | 1013.6 |
| 20260906091744 | 28 | 162 | 1.6 | 3.2 | 0.00 | 0.00 | 0.00 | 52 | 1013.6 |
| 20260906091243 | 29 | 174 | 0.0 | 0.0 | 0.00 | 0.00 | 0.00 | 52 | 1013.6 |
| 20260906090744 | 29 | 164 | 0.0 | 0.0 | 0.00 | 0.00 | 0.00 | 51 | 1013.6 |
| 20260906090243 | 29 | 172 | 1.6 | 3.2 | 0.00 | 0.00 | 0.00 | 51 | 1013.6 |
| 20260906085743 | 29 | 166 | 0.0 | 1.6 | 0.00 | 0.00 | 0.00 | 51 | 1013.5 |
| 20260906085243 | 29 | 168 | 3.2 | 3.2 | 0.00 | 0.00 | 0.00 | 51 | 1013.6 |
| 20260906084743 | 29 | 165 | 1.6 | 3.2 | 0.00 | 0.00 | 0.00 | 51 | 1013.6 |
| 20260906084243 | 29 | 169 | 0.0 | 1.6 | 0.00 | 0.00 | 0.00 | 50 | 1013.6 |
| 20260906083743 | 29 | 170 | 0.0 | 0.0 | 0.00 | 0.00 | 0.00 | 50 | 1013.5 |
| 20260906083243 | 29 | 360 | 0.0 | 0.0 | 0.00 | 0.00 | 0.00 | 50 | 1013.4 |
| 20260906082743 | 29 | 153 | 0.0 | 1.6 | 0.00 | 0.00 | 0.00 | 50 | 1013.4 |
| 20260906082243 | 30 | 168 | 0.0 | 1.6 | 0.00 | 0.00 | 0.00 | 49 | 1013.4 |
| 20260906081743 | 30 | 163 | 0.0 | 0.0 | 0.00 | 0.00 | 0.00 | 49 | 1013.4 |
| 20260906081243 | 30 | 141 | 0.0 | 1.6 | 0.00 | 0.00 | 0.00 | 49 | 1013.4 |
| 20260906080744 | 30 | 175 | 1.6 | 3.2 | 0.00 | 0.00 | 0.00 | 49 | 1013.4 |
| 20260906080243 | 30 | 178 | 0.0 | 0.0 | 0.00 | 0.00 | 0.00 | 49 | 1013.4 |
| 20260906075743 | 30 | 360 | 0.0 | 0.0 | 0.00 | 0.00 | 0.00 | 49 | 1013.4 |
| 20260906075243 | 30 | 162 | 1.6 | 3.2 | 0.00 | 0.00 | 0.00 | 49 | 1013.4 |
| 20260906074743 | 30 | 168 | 1.6 | 1.6 | 0.00 | 0.00 | 0.00 | 48 | 1013.4 |
| 20260906074243 | 30 | 173 | 0.0 | 0.0 | 0.00 | 0.00 | 0.00 | 48 | 1013.4 |
| 20260906073743 | 30 | 360 | 0.0 | 0.0 | 0.00 | 0.00 | 0.00 | 48 | 1013.4 |
| 20260906073243 | 30 | 360 | 0.0 | 0.0 | 0.00 | 0.00 | 0.00 | 47 | 1013.5 |
| 20260906072744 | 30 | 360 | 0.0 | 0.0 | 0.00 | 0.00 | 0.00 | 47 | 1013.5 |
| 20260906072244 | 30 | 360 | 0.0 | 0.0 | 0.00 | 0.00 | 0.00 | 46 | 1013.5 |
| 20260906071744 | 30 | 163 | 0.0 | 1.6 | 0.00 | 0.00 | 0.00 | 46 | 1013.4 |
| 20260906071243 | 30 | 360 | 0.0 | 0.0 | 0.00 | 0.00 | 0.00 | 46 | 1013.5 |
| 20260906070743 | 30 | 360 | 0.0 | 0.0 | 0.00 | 0.00 | 0.00 | 46 | 1013.5 |
| 20260906070243 | 30 | 360 | 0.0 | 0.0 | 0.00 | 0.00 | 0.00 | 47 | 1013.5 |
| 20260906065745 | 30 | 360 | 0.0 | 0.0 | 0.00 | 0.00 | 0.00 | 46 | 1013.5 |
| 20260906065243 | 30 | 360 | 0.0 | 0.0 | 0.00 | 0.00 | 0.00 | 46 | 1013.5 |
| 20260906064743 | 30 | 360 | 0.0 | 0.0 | 0.00 | 0.00 | 0.00 | 46 | 1013.4 |
| 20260906064243 | 30 | 149 | 1.6 | 1.6 | 0.00 | 0.00 | 0.00 | 46 | 1013.5 |
| 20260906063743 | 31 | 179 | 0.0 | 1.6 | 0.00 | 0.00 | 0.00 | 45 | 1013.5 |
| 20260906063244 | 31 | 360 | 0.0 | 0.0 | 0.00 | 0.00 | 0.00 | 45 | 1013.5 |
| 20260906062744 | 31 | 360 | 0.0 | 0.0 | 0.00 | 0.00 | 0.00 | 45 | 1013.5 |
| 20260906062243 | 31 | 360 | 0.0 | 0.0 | 0.00 | 0.00 | 0.00 | 44 | 1013.5 |
| 20260906061744 | 31 | 163 | 3.2 | 3.2 | 0.00 | 0.00 | 0.00 | 44 | 1013.5 |
| 20260906061244 | 31 | 163 | 1.6 | 3.2 | 0.00 | 0.00 | 0.00 | 44 | 1013.5 |
| 20260906060743 | 31 | 168 | 0.0 | 1.6 | 0.00 | 0.00 | 0.00 | 43 | 1013.5 |
| 20260906060243 | 31 | 157 | 1.6 | 3.2 | 0.00 | 0.00 | 0.00 | 43 | 1013.5 |
| 20260906055743 | 31 | 155 | 1.6 | 4.8 | 0.00 | 0.00 | 0.00 | 42 | 1013.5 |
| 20260906055243 | 32 | 171 | 3.2 | 3.2 | 0.00 | 0.00 | 0.00 | 42 | 1013.4 |
| 20260906054743 | 32 | 143 | 1.6 | 3.2 | 0.00 | 0.00 | 0.00 | 42 | 1013.5 |
| 20260906054243 | 32 | 153 | 1.6 | 3.2 | 0.00 | 0.00 | 0.00 | 42 | 1013.5 |
| 20260906053743 | 32 | 148 | 1.6 | 3.2 | 0.00 | 0.00 | 0.00 | 41 | 1013.4 |
| 20260906053243 | 32 | 163 | 1.6 | 3.2 | 0.00 | 0.00 | 0.00 | 41 | 1013.4 |
| 20260906052743 | 32 | 160 | 1.6 | 1.6 | 0.00 | 0.00 | 0.00 | 41 | 1013.3 |
| 20260906052244 | 32 | 179 | 0.0 | 1.6 | 0.00 | 0.00 | 0.00 | 41 | 1013.2 |
| 20260906051743 | 32 | 167 | 1.6 | 3.2 | 0.00 | 0.00 | 0.00 | 41 | 1013.2 |
| 20260906051244 | 32 | 165 | 0.0 | 1.6 | 0.00 | 0.00 | 0.00 | 41 | 1013.2 |
| 20260906050743 | 32 | 151 | 1.6 | 1.6 | 0.00 | 0.00 | 0.00 | 41 | 1013.2 |
| 20260906050244 | 32 | 166 | 0.0 | 0.0 | 0.00 | 0.00 | 0.00 | 41 | 1013.2 |
| 20260906045743 | 32 | 150 | 1.6 | 1.6 | 0.00 | 0.00 | 0.00 | 41 | 1013.1 |
| 20260906045243 | 32 | 360 | 0.0 | 0.0 | 0.00 | 0.00 | 0.00 | 41 | 1013.2 |
| 20260906044743 | 32 | 154 | 0.0 | 1.6 | 0.00 | 0.00 | 0.00 | 41 | 1013.2 |
| 20260906044245 | 32 | 165 | 1.6 | 1.6 | 0.00 | 0.00 | 0.00 | 41 | 1013.1 |
| 20260906043745 | 32 | 175 | 0.0 | 1.6 | 0.00 | 0.00 | 0.00 | 41 | 1013.2 |
| 20260906043247 | 32 | 171 | 1.6 | 3.2 | 0.00 | 0.00 | 0.00 | 41 | 1013.2 |
| 20260906042744 | 32 | 163 | 3.2 | 3.2 | 0.00 | 0.00 | 0.00 | 41 | 1013.2 |
| 20260906042244 | 32 | 165 | 3.2 | 4.8 | 0.00 | 0.00 | 0.00 | 41 | 1013.2 |
| 20260906041743 | 32 | 156 | 3.2 | 3.2 | 0.00 | 0.00 | 0.00 | 41 | 1013.2 |
| 20260906041245 | 32 | 167 | 1.6 | 1.6 | 0.00 | 0.00 | 0.00 | 41 | 1013.3 |
| 20260906040745 | 32 | 155 | 1.6 | 3.2 | 0.00 | 0.00 | 0.00 | 41 | 1013.3 |
| 20260906040243 | 32 | 167 | 3.2 | 4.8 | 0.00 | 0.00 | 0.00 | 41 | 1013.3 |
| 20260906035743 | 32 | 158 | 1.6 | 1.6 | 0.00 | 0.00 | 0.00 | 41 | 1013.3 |
| 20260906035243 | 32 | 164 | 3.2 | 4.8 | 0.00 | 0.00 | 0.00 | 41 | 1013.3 |
| 20260906034743 | 32 | 154 | 3.2 | 3.2 | 0.00 | 0.00 | 0.00 | 41 | 1013.3 |
| 20260906034243 | 33 | 171 | 1.6 | 3.2 | 0.00 | 0.00 | 0.00 | 41 | 1013.3 |
| 20260906033743 | 33 | 159 | 3.2 | 3.2 | 0.00 | 0.00 | 0.00 | 41 | 1013.2 |
| 20260906033243 | 33 | 169 | 1.6 | 3.2 | 0.00 | 0.00 | 0.00 | 41 | 1013.2 |
| 20260906032743 | 33 | 160 | 1.6 | 3.2 | 0.00 | 0.00 | 0.00 | 41 | 1013.2 |
| 20260906032243 | 33 | 161 | 3.2 | 3.2 | 0.00 | 0.00 | 0.00 | 41 | 1013.2 |
| 20260906031743 | 33 | 163 | 1.6 | 3.2 | 0.00 | 0.00 | 0.00 | 41 | 1013.1 |
| 20260906031244 | 33 | 165 | 3.2 | 3.2 | 0.00 | 0.00 | 0.00 | 41 | 1013.2 |
| 20260906030743 | 33 | 159 | 3.2 | 3.2 | 0.00 | 0.00 | 0.00 | 41 | 1013.1 |
| 20260906030243 | 33 | 163 | 3.2 | 4.8 | 0.00 | 0.00 | 0.00 | 40 | 1013.1 |
| 20260906025744 | 33 | 156 | 3.2 | 4.8 | 0.00 | 0.00 | 0.00 | 40 | 1013.1 |
| 20260906025243 | 33 | 171 | 1.6 | 3.2 | 0.00 | 0.00 | 0.00 | 40 | 1013.1 |
| 20260906024743 | 33 | 154 | 3.2 | 3.2 | 0.00 | 0.00 | 0.00 | 39 | 1013.0 |
| 20260906024243 | 33 | 157 | 4.8 | 6.4 | 0.00 | 0.00 | 0.00 | 39 | 1013.0 |
| 20260906023743 | 33 | 171 | 1.6 | 3.2 | 0.00 | 0.00 | 0.00 | 39 | 1013.0 |
| 20260906023243 | 33 | 160 | 1.6 | 1.6 | 0.00 | 0.00 | 0.00 | 39 | 1012.9 |
| 20260906022743 | 33 | 157 | 3.2 | 3.2 | 0.00 | 0.00 | 0.00 | 39 | 1012.8 |
| 20260906022244 | 34 | 360 | 0.0 | 0.0 | 0.00 | 0.00 | 0.00 | 39 | 1012.8 |
| 20260906021743 | 34 | 153 | 0.0 | 1.6 | 0.00 | 0.00 | 0.00 | 38 | 1012.7 |
| 20260906021243 | 34 | 157 | 1.6 | 1.6 | 0.00 | 0.00 | 0.00 | 38 | 1012.7 |
| 20260906020744 | 34 | 161 | 4.8 | 6.4 | 0.00 | 0.00 | 0.00 | 38 | 1012.6 |
| 20260906020243 | 34 | 151 | 1.6 | 3.2 | 0.00 | 0.00 | 0.00 | 38 | 1012.6 |
| 20260906015743 | 34 | 164 | 3.2 | 3.2 | 0.00 | 0.00 | 0.00 | 38 | 1012.6 |
| 20260906015243 | 34 | 360 | 0.0 | 0.0 | 0.00 | 0.00 | 0.00 | 37 | 1012.6 |
| 20260906014743 | 35 | 152 | 0.0 | 0.0 | 0.00 | 0.00 | 0.00 | 37 | 1012.5 |
| 20260906014244 | 35 | 151 | 1.6 | 3.2 | 0.00 | 0.00 | 0.00 | 37 | 1012.4 |
| 20260906013743 | 35 | 157 | 3.2 | 3.2 | 0.00 | 0.00 | 0.00 | 37 | 1012.4 |
| 20260906013243 | 35 | 160 | 4.8 | 6.4 | 0.00 | 0.00 | 0.00 | 37 | 1012.3 |
| 20260906012744 | 35 | 159 | 3.2 | 4.8 | 0.00 | 0.00 | 0.00 | 36 | 1012.3 |
| 20260906012244 | 35 | 160 | 4.8 | 6.4 | 0.00 | 0.00 | 0.00 | 36 | 1012.2 |
| 20260906011743 | 35 | 155 | 4.8 | 6.4 | 0.00 | 0.00 | 0.00 | 36 | 1012.2 |
| 20260906011243 | 35 | 155 | 1.6 | 3.2 | 0.00 | 0.00 | 0.00 | 35 | 1012.2 |
| 20260906010743 | 35 | 155 | 4.8 | 6.4 | 0.00 | 0.00 | 0.00 | 35 | 1012.2 |
| 20260906010244 | 35 | 152 | 3.2 | 3.2 | 0.00 | 0.00 | 0.00 | 35 | 1012.1 |
| 20260906005743 | 36 | 151 | 1.6 | 3.2 | 0.00 | 0.00 | 0.00 | 34 | 1012.0 |
| 20260906005243 | 36 | 160 | 6.4 | 6.4 | 0.00 | 0.00 | 0.00 | 34 | 1012.0 |
| 20260906004743 | 36 | 160 | 4.8 | 6.4 | 0.00 | 0.00 | 0.00 | 34 | 1011.9 |
| 20260906004244 | 36 | 165 | 4.8 | 8.0 | 0.00 | 0.00 | 0.00 | 34 | 1011.9 |
| 20260906003743 | 36 | 161 | 6.4 | 6.4 | 0.00 | 0.00 | 0.00 | 34 | 1011.9 |
| 20260906003243 | 36 | 161 | 4.8 | 6.4 | 0.00 | 0.00 | 0.00 | 33 | 1011.9 |
| 20260906002745 | 36 | 162 | 4.8 | 8.0 | 0.00 | 0.00 | 0.00 | 33 | 1011.9 |
| 20260906002243 | 36 | 169 | 4.8 | 8.0 | 0.00 | 0.00 | 0.00 | 33 | 1011.9 |
| 20260906001743 | 36 | 166 | 6.4 | 8.0 | 0.00 | 0.00 | 0.00 | 33 | 1011.8 |
| 20260906001244 | 36 | 160 | 4.8 | 6.4 | 0.00 | 0.00 | 0.00 | 32 | 1011.8 |
| 20260906000743 | 36 | 154 | 3.2 | 3.2 | 0.00 | 0.00 | 0.00 | 32 | 1011.8 |
| 20260906000243 | 36 | 169 | 3.2 | 4.8 | 0.00 | 0.00 | 0.00 | 32 | 1011.7 |
| 20260905235744 | 36 | 359 | 3.2 | 3.2 | 0.00 | 0.00 | 0.00 | 32 | 1011.7 |
| 20260905235244 | 37 | 160 | 8.0 | 9.7 | 0.00 | 0.00 | 0.00 | 32 | 1011.7 |
| 20260905234743 | 37 | 171 | 3.2 | 4.8 | 0.00 | 0.00 | 0.00 | 32 | 1011.7 |
| 20260905234243 | 37 | 171 | 6.4 | 8.0 | 0.00 | 0.00 | 0.00 | 32 | 1011.6 |
| 20260905233743 | 37 | 152 | 3.2 | 4.8 | 0.00 | 0.00 | 0.00 | 32 | 1011.6 |
| 20260905233243 | 37 | 165 | 3.2 | 4.8 | 0.00 | 0.00 | 0.00 | 31 | 1011.6 |
| 20260905232743 | 37 | 163 | 1.6 | 3.2 | 0.00 | 0.00 | 0.00 | 32 | 1011.4 |
| 20260905232244 | 36 | 171 | 8.0 | 12.9 | 0.00 | 0.00 | 0.00 | 32 | 1011.4 |
| 20260905231744 | 36 | 160 | 3.2 | 6.4 | 0.00 | 0.00 | 0.00 | 32 | 1011.4 |
| 20260905231243 | 36 | 177 | 4.8 | 8.0 | 0.00 | 0.00 | 0.00 | 32 | 1011.4 |
| 20260905230743 | 37 | 155 | 4.8 | 6.4 | 0.00 | 0.00 | 0.00 | 31 | 1011.4 |
| 20260905230243 | 37 | 164 | 8.0 | 9.7 | 0.00 | 0.00 | 0.00 | 32 | 1011.4 |
| 20260905225743 | 37 | 173 | 3.2 | 3.2 | 0.00 | 0.00 | 0.00 | 32 | 1011.4 |
| 20260905225243 | 37 | 147 | 4.8 | 6.4 | 0.00 | 0.00 | 0.00 | 31 | 1011.4 |
| 20260905224743 | 36 | 160 | 1.6 | 3.2 | 0.00 | 0.00 | 0.00 | 32 | 1011.3 |
| 20260905224244 | 37 | 166 | 6.4 | 9.7 | 0.00 | 0.00 | 0.00 | 31 | 1011.4 |
| 20260905223743 | 37 | 165 | 8.0 | 11.3 | 0.00 | 0.00 | 0.00 | 31 | 1011.4 |
| 20260905223243 | 37 | 170 | 1.6 | 3.2 | 0.00 | 0.00 | 0.00 | 31 | 1011.3 |
| 20260905222743 | 36 | 159 | 6.4 | 8.0 | 0.00 | 0.00 | 0.00 | 32 | 1011.4 |
| 20260905222243 | 37 | 156 | 6.4 | 6.4 | 0.00 | 0.00 | 0.00 | 32 | 1011.4 |
| 20260905221743 | 37 | 159 | 4.8 | 6.4 | 0.00 | 0.00 | 0.00 | 31 | 1011.4 |
| 20260905221243 | 37 | 160 | 6.4 | 6.4 | 0.00 | 0.00 | 0.00 | 31 | 1011.4 |
| 20260905220743 | 37 | 161 | 3.2 | 4.8 | 0.00 | 0.00 | 0.00 | 31 | 1011.6 |
| 20260905220243 | 37 | 155 | 6.4 | 6.4 | 0.00 | 0.00 | 0.00 | 31 | 1011.6 |
| 20260905215743 | 37 | 130 | 3.2 | 6.4 | 0.00 | 0.00 | 0.00 | 31 | 1011.6 |
| 20260905215243 | 36 | 146 | 0.0 | 0.0 | 0.00 | 0.00 | 0.00 | 31 | 1011.6 |
| 20260905214743 | 36 | 162 | 6.4 | 6.4 | 0.00 | 0.00 | 0.00 | 32 | 1011.7 |
| 20260905214244 | 36 | 139 | 3.2 | 4.8 | 0.00 | 0.00 | 0.00 | 32 | 1011.8 |
| 20260905213743 | 36 | 157 | 4.8 | 6.4 | 0.00 | 0.00 | 0.00 | 32 | 1011.8 |
| 20260905213243 | 37 | 159 | 6.4 | 8.0 | 0.00 | 0.00 | 0.00 | 32 | 1011.9 |
| 20260905212743 | 37 | 164 | 3.2 | 3.2 | 0.00 | 0.00 | 0.00 | 32 | 1012.0 |
| 20260905212244 | 36 | 178 | 3.2 | 4.8 | 0.00 | 0.00 | 0.00 | 31 | 1012.1 |
| 20260905211743 | 36 | 163 | 4.8 | 6.4 | 0.00 | 0.00 | 0.00 | 33 | 1012.1 |
| 20260905211243 | 36 | 163 | 0.0 | 1.6 | 0.00 | 0.00 | 0.00 | 33 | 1012.2 |
| 20260905210743 | 36 | 157 | 3.2 | 4.8 | 0.00 | 0.00 | 0.00 | 33 | 1012.3 |
| 20260905210243 | 36 | 163 | 6.4 | 6.4 | 0.00 | 0.00 | 0.00 | 32 | 1012.3 |
| 20260905205743 | 36 | 143 | 3.2 | 3.2 | 0.00 | 0.00 | 0.00 | 33 | 1012.3 |
| 20260905205243 | 36 | 158 | 3.2 | 4.8 | 0.00 | 0.00 | 0.00 | 33 | 1012.4 |
| 20260905204743 | 36 | 155 | 8.0 | 11.3 | 0.00 | 0.00 | 0.00 | 33 | 1012.4 |
| 20260905204243 | 37 | 142 | 4.8 | 6.4 | 0.00 | 0.00 | 0.00 | 32 | 1012.5 |